Weather History for Frankfort, KY

Change the Weather History Date:

Friday, January 24, 2014

  Actual Average Record
Temperature  
Mean Temperature 8 °F 33 °F  
Max Temperature 22 °F 42 °F 80 °F (1943)
Min Temperature -7 °F 24 °F -18 °F (1963)
Degree Days  
Heating Degree Days 57 32  
Month to date heating degree days 914 787  
Since 1 July heating degree days 2845 2619  
Cooling Degree Days 0 0  
Month to date cooling degree days 0 0  
Year to date cooling degree days 0 0  
Moisture  
Dew Point -1 °F    
Average Humidity 68    
Maximum Humidity 91    
Minimum Humidity 45    
Precipitation  
Precipitation 0.00 in 0.09 in 2.00 in (2002)
Month to date precipitation 2.24 2.59  
Year to date precipitation 2.24 2.59  
Sea Level Pressure  
Sea Level Pressure 30.43 in    
Wind  
Wind Speed 11 mph (SW)    
Max Wind Speed 24 mph    
Max Gust Speed 34 mph    
Visibility 10 miles    
Events      
T = Trace of Precipitation, MM = Missing Value Source: NWS Daily Summary

Daily Weather History Graph

Daily Weather History Graph

Search for Another Location

Airport:

Trip Planner

Search our weather history database for the weather conditions in past years. The results will help you decide how hot, cold, wet, or windy it might be!

Date:

Astronomy

Jan. 24, 2014 Rise Set
Actual Time 7:50 AM EST 5:53 PM EST
Civil Twilight 7:22 AM EST 6:21 PM EST
Nautical Twilight 6:50 AM EST 6:53 PM EST
Astronomical Twilight 6:18 AM EST 7:25 PM EST
Moon 1:18 AM EST (1/24) 12:10 PM EST (1/24)
Length of Visible Light 10h 59m
Length of Day
10h 03m
Last Quarter, 45% of the Moon is Illuminated
Jan 24
Last Quarter
Jan 30
New
Feb 6
First Quarter
Feb 14
Full
Feb 22
Last Quarter

Hourly Weather History & Observations

Time (EST) Temp. Windchill Dew Point Humidity Pressure Visibility Wind Dir Wind Speed Gust Speed Precip Events Conditions
12:53 AM -0.0 °F - -5.1 °F 79% 30.69 in 10.0 mi Calm Calm - N/A   Clear
1:53 AM -0.0 °F -7.9 °F -5.1 °F 79% 30.69 in 10.0 mi WSW 3.5 mph - N/A   Clear
2:53 AM -2.9 °F -13.3 °F -6.0 °F 87% 30.70 in 10.0 mi SW 4.6 mph - N/A   Clear
3:53 AM -4.0 °F -14.6 °F -7.1 °F 87% 30.69 in 10.0 mi WSW 4.6 mph - N/A   Clear
4:53 AM -5.1 °F -17.6 °F -8.0 °F 87% 30.68 in 10.0 mi SW 5.8 mph - N/A   Clear
5:53 AM -5.1 °F -15.8 °F -8.0 °F 87% 30.66 in 10.0 mi SW 4.6 mph - N/A   Clear
6:53 AM -5.1 °F -15.8 °F -8.0 °F 87% 30.66 in 10.0 mi SW 4.6 mph - N/A   Clear
7:53 AM -5.1 °F -13.6 °F -8.0 °F 87% 30.65 in 10.0 mi SW 3.5 mph - N/A   Clear
8:53 AM -0.9 °F -12.7 °F -4.0 °F 87% 30.63 in 10.0 mi SSW 5.8 mph - N/A   Clear
9:53 AM 3.9 °F -12.2 °F -0.9 °F 80% 30.60 in 10.0 mi SSW 11.5 mph - N/A   Clear
10:53 AM 8.1 °F -5.3 °F -0.0 °F 70% 30.59 in 10.0 mi SSW 9.2 mph - N/A   Clear
11:53 AM 10.9 °F -4.7 °F 1.0 °F 64% 30.55 in 10.0 mi SSW 13.8 mph - N/A   Clear
12:53 PM 14.0 °F -0.2 °F 1.0 °F 56% 30.49 in 10.0 mi SW 12.7 mph - N/A   Clear
1:53 PM 17.1 °F 2.0 °F 1.9 °F 52% 30.43 in 10.0 mi SSW 16.1 mph 23.0 mph N/A   Clear
2:53 PM 18.0 °F 4.2 °F 3.9 °F 54% 30.37 in 10.0 mi SSW 13.8 mph 23.0 mph N/A   Clear
3:53 PM 19.0 °F 4.0 °F 3.9 °F 52% 30.32 in 10.0 mi SSW 17.3 mph 26.5 mph N/A   Clear
4:53 PM 19.0 °F 6.1 °F 3.0 °F 50% 30.27 in 10.0 mi South 12.7 mph 23.0 mph N/A   Clear
5:53 PM 19.0 °F 5.6 °F 1.9 °F 47% 30.21 in 10.0 mi South 13.8 mph 21.9 mph N/A   Clear
6:53 PM 19.0 °F 5.0 °F 3.0 °F 50% 30.16 in 10.0 mi South 15.0 mph - N/A   Clear
7:53 PM 19.0 °F 6.1 °F 3.0 °F 50% 30.14 in 10.0 mi SSW 12.7 mph - N/A   Clear
8:53 PM 19.0 °F 4.5 °F 3.9 °F 52% 30.08 in 10.0 mi SSW 16.1 mph - N/A   Clear
9:53 PM 21.0 °F 4.6 °F 3.0 °F 46% 30.01 in 10.0 mi SSW 23.0 mph 32.2 mph N/A   Clear
10:53 PM 21.9 °F 6.9 °F 3.0 °F 44% 30.00 in 10.0 mi SW 19.6 mph 25.3 mph N/A   Clear
11:53 PM 21.9 °F 7.8 °F 3.0 °F 44% 29.96 in 10.0 mi SSW 17.3 mph 26.5 mph N/A   Clear